Location: Daramandougou
(10.8167°N, 4.5500°W)
Time: 14:45:02
(UTC+00:00)

Daily predictions for brighter satellites

Satellite Brightness Start Highest point End
(mag) Time Altitude Azimuth Time Altitude Azimuth Time Altitude Azimuth
Meteor 1-21 Rocket 4.4 18:19:41 10° N 18:25:17 52° E 18:30:46 10° SSE
Cosmos 1356 3.4 18:22:22 10° S 18:25:47 87° E 18:29:12 10° N
CZ-4C R/B 3.8 18:19:47 10° N 18:26:46 31° ENE 18:33:57 10° ESE
NOAA 12 4.0 18:26:17 10° SSE 18:31:30 74° ENE 18:36:44 10° N
Cosmos 2239 Rocket 4.5 18:30:47 10° N 18:36:48 60° E 18:42:50 10° SSE
ATLAS 3B R/B 3.7 18:31:44 10° SSE 18:37:16 25° ESE 18:42:29 11° ENE
USA 215 4.4 18:32:13 10° SSE 18:38:27 47° SW 18:44:42 10° NW
Cosmos 1726 3.2 18:39:58 10° SSW 18:43:31 48° W 18:47:04 10° N
Cosmos 1821 Rocket 3.9 18:37:36 10° N 18:43:45 82° E 18:50:00 10° S
Hubble Space Telescope 1.2 18:45:32 10° WNW 18:49:37 61° SSW 18:53:21 12° SE
ADEOS Rocket 4.3 18:45:19 10° NE 18:50:34 22° E 18:55:28 10° SE
CENTAUR R/B 2.9 18:46:12 10° S 18:50:48 30° ESE 18:54:06 17° ENE
Cosmos 1934 Rocket 4.0 18:50:33 10° N 18:56:49 62° E 19:03:05 10° SSE
Cosmos 1271 Rocket 2.9 18:53:01 10° N 18:57:00 81° W 19:01:00 10° S
Ariane Rocket 4.4 18:59:50 18° NE 18:59:50 18° NE 19:02:05 10° NNE
USA 238 DEB 4.2 18:52:01 10° SW 18:58:30 58° WNW 19:05:03 10° NNE
USA 238 4.2 18:52:06 10° SW 18:58:37 59° WNW 19:05:10 10° NNE
Cosmos 1535 Rocket 4.4 18:53:02 10° N 18:59:06 66° E 19:05:08 10° SSE
Cosmos 1953 Rocket 3.6 18:56:23 10° N 19:00:41 77° W 19:04:59 10° S
Cosmos 1300 3.3 18:58:43 10° SSE 19:02:10 33° E 19:02:38 32° ENE
EO 1 Delta rocket 3.9 18:59:31 10° SSE 19:04:46 61° E 19:09:21 10° N
Cosmos 1354 Rocket 3.9 19:00:09 10° N 19:05:20 69° ENE 19:10:33 10° SSE
ARIANE 5 R/B 4.2 19:04:36 10° SW 19:08:26 36° SSE 19:16:39 19° ESE
BREEZE-M DEB (TANK) 4.3 19:06:21 10° WSW 19:08:43 28° NW 19:13:05 10° NNE
Cosmos 968 Rocket 3.5 19:04:44 10° NNW 19:09:59 88° W 19:15:12 10° SSE
GPS 2-12 Rocket1 4.5 19:08:11 10° WNW 19:11:56 25° N 19:13:19 21° NNE
Chunghua 1 4.4 19:08:12 10° NW 19:12:04 86° NE 19:13:10 45° ESE
Cosmos 1242 Rocket 2.4 19:08:33 10° N 19:12:11 70° E 19:15:48 10° SSE
CSL-04 Debris 4.0 19:06:52 10° SSE 19:12:16 80° ENE 19:17:42 10° N
Cosmos 1812 Rocket 3.4 19:09:03 10° S 19:13:24 79° E 19:17:47 10° N
SL-24 R/B 4.3 19:09:48 10° NNE 19:14:45 57° E 19:19:04 10° S
ASTRO E2 4.2 19:12:33 10° NNW 19:15:17 22° NNE 19:15:17 22° NNE
Cosmos 44 3.3 19:10:41 10° SSW 19:15:56 73° ESE 19:18:54 25° NNE
Cosmos 1703 3.1 19:12:07 10° N 19:15:59 65° E 19:19:50 10° SSE
Intelsat 5-2 Rocket 4.5 19:12:22 10° NW 19:16:51 57° NNE 19:22:36 28° E
SEDSat Delta rocket 3.0 19:15:29 10° SW 19:20:26 77° SSE 19:21:25 53° ENE
YAOGAN 6 4.2 19:18:51 10° SSW 19:22:17 37° W 19:25:43 10° NNW
YAOGAN 1 2.9 19:18:18 10° S 19:22:35 66° W 19:26:52 10° NNW
Atlas Centaur 2 1.9 19:16:58 10° NW 19:22:47 59° NNE 19:23:42 50° ENE
GPS 2-18 Rocket1 4.0 19:19:45 10° W 19:23:32 39° NNW 19:24:05 37° N
USA 234 3.8 19:18:16 10° NNE 19:24:38 57° NW 19:31:01 10° SW
CZ-2C R/B 3.9 19:39:39 36° N 19:41:29 72° WNW 19:46:08 10° SSW
Meteor 1-11 4.3 19:36:11 10° N 19:41:58 82° W 19:47:47 10° S
Cosmos 2297 3.9 19:40:08 10° SSW 19:45:44 67° WNW 19:48:50 27° N
NOSS 3-2 (C) 4.4 19:42:41 10° SW 19:47:46 39° WNW 19:52:14 14° N
CZ-4 R/B 4.3 19:46:21 10° SW 19:49:03 17° W 19:51:48 10° WNW
SWIFT 3.6 19:46:22 10° WSW 19:49:06 36° SW 19:49:06 36° SW
Cosmos 2344 4.2 19:44:48 10° S 19:51:52 40° SE 19:51:52 40° SE
H-II Stage 2 4.5 19:48:58 10° W 19:57:03 34° NW 19:57:03 34° NW
Palapa B4 Rocket 4.4 19:50:47 10° WSW 20:02:36 87° NNW 20:03:43 71° ENE
Centaur D-1AR AC-48 4.1 20:06:43 10° SW 20:08:28 14° SSW 20:08:28 14° SSW
CZ-4C R/B 4.2 20:07:43 10° NW 20:15:21 42° WSW 20:23:04 10° S
ATLAS 3B R/B 4.0 20:21:29 10° SW 20:27:39 35° WNW 20:29:51 28° NNW
ADEOS Rocket 4.4 20:29:11 10° N 20:35:55 41° WNW 20:42:06 10° SW
CENTAUR R/B 4.4 20:37:23 10° WSW 20:41:11 19° WNW 20:41:24 19° WNW
ATLAS 5 CENTAUR R/B 4.1 20:51:22 10° W 21:00:30 80° NNW 22:03:27 10° ENE
